Location: Monrovia
(34.7865°N, 86.7139°W)
Time: 22:02:14
(UTC+00:00)

Meteor 2-11 Rocket - Pass Details

Date: 14 July 2020
Orbit: 939 x 957 km, 82.5° (Epoch: 08 August)

Event Time Altitude Azimuth Distance (km) Brightness Sun altitude
Exits shadow 08:44:46 36° 209° (SSW) 1,442 4.9 -20.4°
Maximum altitude 08:47:15 66° 278° (W) 1,026 4.4 -20.1°
Drops below altitude 10° 08:53:17 10° 0° (N) 2,660 7.4 -19.2°
Sets 08:55:48 0° 4° (N) 3,607 8.3 -18.9°
